Printer-friendly version

IAU Minor Planet Center

Minor Planet Center

MPEC 2003-V58 : 2003 UY283

The following Minor Planet Electronic Circular may be linked-to from your own Web pages, but must not otherwise be redistributed electronically.


Read MPEC 2003-V57 Read MPEC 2003-V59


M.P.E.C. 2003-V58                                Issued 2003 Nov. 14, 16:42 UT

     The Minor Planet Electronic Circulars contain information on unusual
         minor planets and routine data on comets.  They are published
   on behalf of Commission 20 of the International Astronomical Union by the
          Minor Planet Center, Smithsonian Astrophysical Observatory,
                          Cambridge, MA 02138, U.S.A.

         Supported in part by the Steven and Michele Kirsch Foundation
             Prepared using the Tamkin Foundation Computer Network

                              MPC@CFA.HARVARD.EDU
          URL http://cfa-www.harvard.edu/iau/mpc.html  ISSN 1523-6714

                                  2003 UY283

Observations:
     K03US3Y* C2003 10 18.36218 02 30 37.16 +12 46 18.2          20.9 V      291
     K03US3Y  C2003 10 18.38578 02 30 36.36 +12 46 19.9          20.8 V      291
     K03US3Y  C2003 10 18.43375 02 30 34.69 +12 46 23.9          20.9 V      291
     K03US3Y  C2003 10 21.18302 02 29 00.16 +12 49 55.6          21.3 V      691
     K03US3Y  C2003 10 21.20984 02 28 59.20 +12 49 57.7          21.5 V      691
     K03US3Y  C2003 10 21.23623 02 28 58.28 +12 49 59.8          21.2 V      691
     K03US3Y  C2003 10 22.35062 02 28 19.15 +12 51 23.1          20.7 V      291
     K03US3Y  C2003 10 22.35850 02 28 18.87 +12 51 23.9          20.8 V      291
     K03US3Y  C2003 10 22.36637 02 28 18.58 +12 51 24.5          20.7 V      291
     K03US3Y  C2003 10 25.26410 02 26 36.12 +12 54 55.6          20.7 V      291
     K03US3Y  C2003 10 25.26859 02 26 35.96 +12 54 56.0          20.8 V      291
     K03US3Y  C2003 10 25.27275 02 26 35.82 +12 54 56.3          20.7 V      291
     K03US3Y  C2003 11 03.29983 02 21 13.77 +13 05 26.4          20.3 R      926
     K03US3Y  C2003 11 03.30705 02 21 13.50 +13 05 27.0          20.1 R      926
     K03US3Y  C2003 11 03.31440 02 21 13.21 +13 05 28.5          19.7 R      926
     K03US3Y  C2003 11 04.41025 02 20 34.65 +13 06 43.1          20.8 R      926
     K03US3Y  C2003 11 04.41600 02 20 34.40 +13 06 42.9          21.4 R      926
     K03US3Y  C2003 11 04.42181 02 20 34.17 +13 06 44.2          20.6 R      926
     K03US3Y  C2003 11 05.36042 02 20 01.46 +13 07 49.4          20.5 R      673
     K03US3Y  C2003 11 05.36701 02 20 01.21 +13 07 49.9                      673
     K03US3Y  C2003 11 05.37442 02 20 00.94 +13 07 50.5                      673
     K03US3Y  C2003 11 05.38056 02 20 00.74 +13 07 50.8                      673
     K03US3Y  C2003 11 05.38666 02 20 00.48 +13 07 51.3                      673
     K03US3Y  C2003 11 05.39572 02 20 00.21 +13 07 51.9                      673
     K03US3Y  C2003 11 05.40197 02 19 59.97 +13 07 52.2                      673
     K03US3Y  C2003 11 14.13773 02 15 08.45 +13 18 22.3          20.5 R      673
     K03US3Y  C2003 11 14.15046 02 15 08.04 +13 18 23.2                      673
     K03US3Y  C2003 11 14.17650 02 15 07.15 +13 18 25.0                      673
     K03US3Y  C2003 11 14.18449 02 15 06.89 +13 18 25.7                      673
     K03US3Y  C2003 11 14.19398 02 15 06.68 +13 18 26.3                      673
     K03US3Y  C2003 11 14.20162 02 15 06.41 +13 18 27.0                      673
     K03US3Y  C2003 11 14.21065 02 15 06.09 +13 18 27.8                      673
     K03US3Y  C2003 11 14.22060 02 15 05.74 +13 18 28.4                      673
     K03US3Y  C2003 11 14.22917 02 15 05.46 +13 18 29.0                      673
     K03US3Y  C2003 11 14.23924 02 15 05.11 +13 18 29.9                      673

Observer details:
291 LPL/Spacewatch II.  Observers A. E. Gleason, J. V. Scotti, M. Block.
    1.8-m f/2.7 reflector + CCD.
673 Table Mountain Observatory, Wrightwood.  Observer J. Young.  0.6-m
    reflector + CCD.
691 Steward Observatory, Kitt Peak.  Observer A. E. Gleason.  0.9-m f/3
    reflector + CCD.
926 Tenagra II Observatory.  Observers P. R. Holvorcem, M. Schwartz.  0.81-m
    f/7 Ritchey-Chretien + CCD.

Orbital elements:
2003 UY283
Epoch 2003 Oct. 28.0 TT = JDT 2452940.5                 MPC
M   1.24231              (2000.0)            P               Q
n   0.00506304     Peri.  311.24862     +0.96256528     +0.17278016
a  33.5888641      Node    40.13287     -0.01213755     +0.79719695
e   0.8956139      Incl.   18.90538     -0.27077806     +0.57846698
P 195              H   15.3           G   0.15
From 35 observations 2003 Oct. 18-Nov. 14.

Ephemeris:
2003 UY283               a,e,i = 33.59, 0.90, 19                 q = 3.5062
Date    TT    R. A. (2000) Decl.     Delta      r     Elong.  Phase     V
2003 11 07    02 19.08   +13 09.7    3.145    4.130   172.7     1.7    21.1
2003 11 17    02 13.67   +13 22.1    3.225    4.175   161.5     4.3    21.3
2003 11 27    02 09.17   +13 36.6    3.333    4.220   150.5     6.6    21.5
2003 12 07    02 05.94   +13 54.6    3.467    4.266   139.7     8.6    21.7
2003 12 17    02 04.15   +14 16.9    3.623    4.313   129.3    10.2    21.9
2003 12 27    02 03.89   +14 43.9    3.797    4.361   119.2    11.4    22.1
2004 01 06    02 05.15   +15 15.9    3.984    4.410   109.4    12.1    22.3
2004 01 16    02 07.82   +15 52.5    4.181    4.460   100.1    12.5    22.4
2004 01 26    02 11.80   +16 33.2    4.384    4.510    91.0    12.6    22.5
2004 02 05    02 16.94   +17 17.5    4.588    4.561    82.3    12.4    22.6
2004 02 15    02 23.10   +18 04.6    4.789    4.613    73.8    11.9    22.7
2004 02 25    02 30.13   +18 54.0    4.986    4.665    65.6    11.1    22.8

Brian G. Marsden             (C) Copyright 2003 MPC           M.P.E.C. 2003-V58

Read MPEC 2003-V57 Read MPEC 2003-V59


Our Web policy. Index to the CBAT/MPC/ICQ pages.


Valid HTML 4.01!